This is the latest recevied weather packets stored in our database for station/object G1OCN-WX. If no packets are shown the sender has not sent any weather packets the latest 10 day(s).
| Time | Temp. | Humidity | Pressure | Rain* | Wind** | Luminosity | Snow |
|---|---|---|---|---|---|---|---|
| 1788044414 | 17.22° C | 83% | 1009 hPa | 0 mm | - | - | - |
| 1788044234 | 17.22° C | 83% | 1009 hPa | 0 mm | - | - | - |
| 1788044054 | 17.78° C | 84% | 1008.8 hPa | 0 mm | - | - | - |
| 1788043784 | 17.78° C | 84% | 1008.9 hPa | 0 mm | - | - | - |
| 1788042884 | 17.78° C | 84% | 1008.8 hPa | 0 mm | - | - | - |
| 1788041984 | 17.78° C | 84% | 1008.7 hPa | 0 mm | - | - | - |
| 1788041084 | 17.78° C | 83% | 1008.5 hPa | 0 mm | - | - | - |
| 1788040183 | 17.78° C | 84% | 1008.3 hPa | 0 mm | - | - | - |
| 1788039283 | 17.78° C | 84% | 1008.1 hPa | 0 mm | - | - | - |
| 1788038383 | 18.33° C | 82% | 1008 hPa | 0 mm | - | - | - |
| 1788037483 | 18.33° C | 78% | 1007.8 hPa | 0 mm | - | - | - |
| 1788036583 | 18.33° C | 81% | 1007.7 hPa | 0 mm | - | - | - |
| 1788035683 | 18.33° C | 82% | 1007.4 hPa | 0 mm | - | - | - |
| 1788034783 | 18.33° C | 77% | 1007.1 hPa | 0 mm | - | - | - |
| 1788033883 | 18.33° C | 77% | 1006.6 hPa | 0 mm | - | - | - |
| 1788032983 | 18.33° C | 78% | 1006.4 hPa | 0 mm | - | - | - |
| 1788032083 | 18.89° C | 77% | 1006.3 hPa | 0 mm | - | - | - |
| 1788031183 | 18.89° C | 77% | 1006.1 hPa | 0 mm | - | - | - |
| 1788030283 | 18.89° C | 76% | 1005.7 hPa | 0 mm | - | - | - |
| 1788029383 | 18.89° C | 76% | 1005.2 hPa | 0 mm | - | - | - |
| 1788028483 | 18.89° C | 76% | 1004.9 hPa | 0 mm | - | - | - |
| 1788027583 | 18.89° C | 79% | 1004.6 hPa | 0 mm | - | - | - |
| 1788026683 | 18.33° C | 83% | 1004.3 hPa | 0 mm | - | - | - |
| 1788025783 | 18.33° C | 83% | 1004.1 hPa | 0 mm | - | - | - |
| 1788024883 | 18.89° C | 83% | 1003.9 hPa | 0 mm | - | - | - |
* Rain latest hour (hover to see other rain measurements)
** Current wind speed in m/s (hover to see current wind gust speed)